Regional Weather Roundup
Issued by NWS

Home | Current Version | Previous Version | Graphics & Text | Print | Product List | Glossary On
Versions: 1 2 3 4 5 6 7 8 9 10 11 12 13 14 15 16 17 18 19 20 21 22 23 24 25 26 27 28 29 30 31 32 33 34 35 36 37 38 39 40 41 42 43 44 45 46 47 48 49 50
000
ASUS45 KTFX 012304
RWRMT
MONTANA REGIONAL WEATHER ROUNDUP
NATIONAL WEATHER SERVICE GREAT FALLS MT
500 PM MDT TUE SEP 01 2015

NOTE: "FAIR" INDICATES FEW OR NO CLOUDS BELOW 12000 FEET WITH NO
SIGNIFICANT WEATHER AND/OR OBSTRUCTIONS TO VISIBILITY.

MTZ001>007-043-020000-
WEST OF THE DIVIDE

CITY           SKY/WX    TMP DP  RH WIND       PRES   REMARKS
KALISPELL      CLEAR     79  35  20 S10       29.77F
MISSOULA       SUNNY     82  38  20 NW14      29.79F
BUTTE          PTSUNNY   78  25  14 NW17      29.91F
MULLAN PASS    MOSUNNY   62  30  29 VRB6      29.95F
DEER LODGE       N/A     79  34  19 N7        29.90F
EUREKA           N/A     73  39  29 S6        29.80F
HAMILTON         N/A     81  39  22 N8        29.78F
LIBBY            N/A     73  41  31 S3        29.80F
$$

MTZ008-052>055-020000-
SOUTHWEST MONTANA

CITY           SKY/WX    TMP DP  RH WIND       PRES   REMARKS
BOZEMAN        SUNNY     85  33  15 NE10      29.84F
DILLON         SUNNY     84  28  13 VRB5      29.86F
W YELLOWSTONE  SUNNY     75  23  14 SW15G31   30.04F
$$

MTZ009-010-012-014-046-048-049-054-020000-
EAST SLOPES AND CENTRAL MONTANA

CITY           SKY/WX    TMP DP  RH WIND       PRES   REMARKS
CUT BANK       SUNNY     77  31  18 W20G30    29.78S
GREAT FALLS    MOSUNNY   84  29  13 SW12      29.78F
HELENA         MOSUNNY   84  36  18 NE6       29.80F
$$

MTZ011-013-016-021-045-047-050-051-020000-
NORTH CENTRAL MONTANA

CITY           SKY/WX    TMP DP  RH WIND       PRES   REMARKS
HAVRE          PTSUNNY   84  26  12 W16G22    29.73S
LEWISTOWN      SUNNY     84  28  13 VRB5      29.83F
N BAR RANCH      N/A     84  25  11 NW8       29.87F
CHINOOK          N/A     84  28  13 SW14      29.73S
FORT BENTON      N/A     82  30  15 SW12G18   29.75F
$$

MTZ017>020-022>027-061-062-020000-
NORTHEAST MONTANA

CITY           SKY/WX    TMP DP  RH WIND       PRES   REMARKS
GLASGOW        SUNNY     87  33  14 W12       29.74S
JORDAN           N/A     89  33  13 CALM      29.76F
SIDNEY         SUNNY     91  46  21 W8        29.72S
WOLF POINT     SUNNY     89  38  16 W14       29.74S
PLENTYWOOD       N/A     88  39  18 SW13      29.74R
POPLAR           N/A     88  34  14 SW14G20   29.75S
$$

MTZ028>42-056>058-020000-
SOUTHCENTRAL AND SOUTHEAST MONTANA

CITY           SKY/WX    TMP DP  RH WIND       PRES   REMARKS
BAKER          SUNNY     92  41  17 NW6       29.80F
BILLINGS       MOSUNNY   90  26  10 VRB5      29.80F
LIVINGSTON     SUNNY     89  27  10 W12G17    29.83F
MILES CITY     SUNNY     93  33  12 W13G20    29.76F
FORSYTH          N/A     91  34  13 CALM      29.77S
$$

REGIONAL REPORTS...DAKOTAS

CITY           SKY/WX    TMP DP  RH WIND       PRES   REMARKS
WILLISTON      SUNNY     93  44  18 S10       29.72F
MINOT          SUNNY     88  51  28 S15       29.75S
DICKINSON      SUNNY     88  54  31 SE12      29.78S
BISMARCK       SUNNY     88  63  43 SE10      29.77F
GRAND FORKS    MOSUNNY   86  53  32 S9        29.81S
FARGO          MOSUNNY   88  50  27 SE10      29.81S
BUFFALO SD       N/A     88  55  32 E7        29.76S
RAPID CITY     SUNNY     86  58  38 NE10      29.84S
$$

REGIONAL REPORTS...WYOMING/IDAHO/WASHINGTON

CITY           SKY/WX    TMP DP  RH WIND       PRES   REMARKS
GILLETTE       SUNNY     90  29  11 NW7       29.88F
SHERIDAN       SUNNY     92  26   9 CALM      29.82F
BUFFALO WY     SUNNY     89  27  10 E8        29.92S
CODY           MOSUNNY   88  30  12 W10G16    29.89S
YELLOWSTONE LA   N/A     71  23  16 SW10G22   30.16F
IDAHO FALLS    SUNNY     85  29  13 SW15      29.93F
SALMON         SUNNY     84  36  17 N5        29.75F
BOISE          PTSUNNY   84  40  21 NW8       29.79F
SPOKANE        PTSUNNY   74  38  27 SW13      29.79F
$$

REGIONAL REPORTS...ALBERTA

CITY           SKY/WX    TMP DP  RH WIND       PRES   REMARKS
$$

REGIONAL REPORTS...SASKATCHEWAN

CITY           SKY/WX    TMP DP  RH WIND       PRES   REMARKS
$$


USA.gov is the U.S. government's official web portal to all federal, state and local government web resources and services.